Miscellaneous Local Product
Issued by NWS Hastings, NE

Home | Current Version | Previous Version | Text Only | Print | Product List | Glossary Off
Versions: 1 2 3 4 5 6 7 8 9 10 11 12 13 14 15 16 17 18 19 20 21 22 23 24 25 26 27 28 29 30 31 32 33 34 35 36 37 38 39 40 41 42 43 44 45 46 47 48 49 50

126
AXUS43 KGID 231302
MISGRI

GID CWA HOURLY WEATHER ROUNDUP
NATIONAL WEATHER SERVICE HASTINGS NE
800 AM CDT TUE MAY 23 2017

NOTE: "FAIR" INDICATES FEW OR NO CLOUDS BELOW 12,000 FEET WITH NO
SIGNIFICANT WEATHER AND/OR OBSTRUCTIONS TO VISIBILITY.

...SOUTH CENTRAL NEBRASKA...

CITY           SKY/WX    TMP DP  RH WIND       PRES   REMARKS
GRAND ISLAND   CLOUDY    48  45  89 W9        29.98F
HASTINGS       CLOUDY    49  44  83 NW9       29.99F
KEARNEY        CLOUDY    48  43  81 NW12      30.00S
ORD            CLOUDY    50  42  74 NW10      29.96S
YORK           MOSUNNY   48  45  87 NW12      29.96F
AURORA         CLOUDY    48  44  87 NW12      29.97S
LEXINGTON      CLOUDY    46  43  87 NW13      30.03F
HOLDREGE       CLOUDY    47  43  87 NW10      30.01F
HEBRON         SUNNY     52  47  82 NW8       29.97S

...NEBRASKA PANHANDLE...

CITY           SKY/WX    TMP DP  RH WIND       PRES   REMARKS
CHADRON        CLOUDY    45  39  79 NW10      30.15R
ALLIANCE       CLOUDY    44  39  82 NW15      30.12S
SCOTTSBLUFF    CLOUDY    42  38  85 W8        30.17R
SIDNEY         CLOUDY    43  40  89 NW14      30.16R

...WESTERN AND NORTH CENTRAL NEBRASKA...

CITY           SKY/WX    TMP DP  RH WIND       PRES   REMARKS
VALENTINE      SUNNY     50  39  66 N14       30.05R
AINSWORTH      CLOUDY    48  41  76 N21G26    30.03R
ONEILL         CLOUDY    50  43  76 N18G25    29.97R
BROKEN BOW     CLOUDY    50  43  77 NW17      29.99F
IMPERIAL       CLOUDY    46  39  76 NW15      30.10S
NORTH PLATTE   CLOUDY    47  44  90 W9        30.06S
MCCOOK         CLOUDY    47  43  86 NW14      30.06F

...EASTERN NEBRASKA...

CITY           SKY/WX    TMP DP  RH WIND       PRES   REMARKS
NORFOLK        CLOUDY    48  43  82 W8        29.93S
SO SIOUX CITY  CLOUDY    50  46  86 W9        29.91S
TEKAMAH        CLOUDY    51  44  77 NW10      29.91S
COLUMBUS         N/A    N/A N/A N/A MISG        N/A
ALBION         CLOUDY    49  44  83 CALM      29.94F
OMAHA EPPLEY   PTSUNNY   53  43  68 NW12      29.92R
OFFUTT AFB     SUNNY     53  43  70 NW13      29.91R
MILLARD        SUNNY     54  46  72 N9        29.93S
LINCOLN        SUNNY     53  45  74 NW9       29.95S
NEBRASKA CITY  SUNNY     52  43  72 N13G18    29.92S
BEATRICE       SUNNY     53  48  84 NW13      29.95S
FALLS CITY     SUNNY     54  47  77 NW8       29.91S

...NORTHERN KANSAS...

CITY           SKY/WX    TMP DP  RH WIND       PRES   REMARKS
GOODLAND       SUNNY     44  40  85 NW14      30.12S
HILL CITY      SUNNY     49  44  83 NW13      30.07R
NORTON         SUNNY     48  39  71 W16       30.04
HAYS           SUNNY     50  44  80 NW13      30.06R
RUSSELL        SUNNY     50  46  86 NW13      30.02S
CONCORDIA      SUNNY     51  48  89 NW12      29.97S
SALINA         SUNNY     54  49  83 NW12      29.99R
TOPEKA         CLOUDY    54  51  90 NW6       29.92R



USA.gov is the U.S. government's official web portal to all federal, state and local government web resources and services.